{"data":{"norad_id":61213,"epoch":"2026-09-21T20:52:22.418688Z","epoch_age_seconds":73918,"freshness":"FRESH","line1":"1 61213U 24171P   26264.86970392 -.00007282  00000+0 -20447-3 0  9992","line2":"2 61213  53.1609 127.0149 0002064  73.0838 287.0391 15.34413681112464","mean_motion":15.34413681,"eccentricity":0.0002064,"inclination_deg":53.1609,"raan_deg":127.0149,"arg_perigee_deg":73.0838,"mean_anomaly_deg":287.0391,"bstar":-0.00020447,"rev_number":11246,"period_min":93.846921324472,"perigee_km":461.25063666126,"apogee_km":464.07451872693,"semimajor_km":6840.7995776941,"source":"CELESTRAK","updated_at":"2026-09-22T09:00:49.341687Z"}}